| time (UTC) | temp F | wind direction | speed MPH | gust MPH | rain 1hr in | rain 24hr in | rain mn in | humidity % | barometer mb |
| 20260508063004 | 58 | 249 | 1.0 | 3.0 | 0.00 | 0.00 | 0.00 | 85 | 1015.9 |
| 20260508062004 | 58 | 249 | 2.0 | 4.0 | 0.00 | 0.00 | 0.00 | 85 | 1015.9 |
| 20260508061005 | 58 | 249 | 1.0 | 5.0 | 0.00 | 0.00 | 0.00 | 84 | 1015.7 |
| 20260508060005 | 58 | 249 | 0.0 | 3.0 | 0.00 | 0.00 | 0.00 | 84 | 1015.8 |
| 20260508055004 | 59 | 249 | 1.0 | 4.0 | 0.00 | 0.00 | 0.00 | 84 | 1015.6 |
| 20260508054004 | 59 | 0 | 2.0 | 2.0 | 0.00 | 0.00 | 0.00 | 83 | 1015.5 |
| 20260508052005 | 59 | 0 | 1.0 | 1.0 | 0.00 | 0.00 | 0.00 | 81 | 1015.5 |
| 20260508051004 | 59 | 0 | 1.0 | 1.0 | 0.00 | 0.00 | 0.00 | 81 | 1015.3 |
| 20260508050004 | 60 | 0 | 2.0 | 2.0 | 0.00 | 0.00 | 0.00 | 81 | 1015.3 |
| 20260508044004 | 60 | 246 | 0.0 | 2.0 | 0.00 | 0.00 | 0.00 | 81 | 1015.4 |
| 20260508043025 | 60 | 246 | 0.0 | 3.0 | 0.00 | 0.00 | 0.00 | 80 | 1015.4 |
| 20260508042004 | 61 | 247 | 1.0 | 4.0 | 0.00 | 0.00 | 0.00 | 80 | 1015.3 |
| 20260508041004 | 61 | 247 | 1.0 | 4.0 | 0.00 | 0.00 | 0.00 | 80 | 1015.2 |
| 20260508040005 | 61 | 248 | 2.0 | 3.0 | 0.00 | 0.00 | 0.00 | 79 | 1015.2 |
| 20260508035004 | 62 | 249 | 1.0 | 5.0 | 0.00 | 0.00 | 0.00 | 79 | 1015.1 |
| 20260508034004 | 62 | 251 | 1.0 | 3.0 | 0.00 | 0.00 | 0.00 | 78 | 1015.1 |
| 20260508033026 | 62 | 251 | 1.0 | 4.0 | 0.00 | 0.00 | 0.00 | 77 | 1015.1 |
| 20260508032004 | 63 | 251 | 1.0 | 3.0 | 0.00 | 0.00 | 0.00 | 76 | 1014.8 |
| 20260508031004 | 63 | 252 | 1.0 | 5.0 | 0.00 | 0.00 | 0.00 | 76 | 1014.8 |
| 20260508030005 | 64 | 255 | 2.0 | 5.0 | 0.00 | 0.00 | 0.00 | 74 | 1014.7 |
| 20260508025004 | 64 | 259 | 2.0 | 4.0 | 0.00 | 0.00 | 0.00 | 73 | 1014.6 |
| 20260508024025 | 64 | 260 | 2.0 | 5.0 | 0.00 | 0.00 | 0.00 | 73 | 1014.5 |
| 20260508023004 | 65 | 260 | 3.0 | 5.0 | 0.00 | 0.00 | 0.00 | 72 | 1014.5 |
| 20260508022004 | 66 | 265 | 3.0 | 7.0 | 0.00 | 0.00 | 0.00 | 70 | 1014.4 |
| 20260508021004 | 66 | 252 | 3.0 | 7.0 | 0.00 | 0.00 | 0.00 | 70 | 1014.5 |
| 20260508020025 | 67 | 240 | 3.0 | 6.0 | 0.00 | 0.00 | 0.00 | 68 | 1014.3 |
| 20260508015004 | 67 | 255 | 4.0 | 9.0 | 0.00 | 0.00 | 0.00 | 67 | 1014.4 |
| 20260508014004 | 68 | 250 | 3.0 | 7.0 | 0.00 | 0.00 | 0.00 | 66 | 1014.3 |
| 20260508013025 | 69 | 258 | 3.0 | 7.0 | 0.00 | 0.00 | 0.00 | 64 | 1014.2 |
| 20260508012004 | 70 | 246 | 3.0 | 7.0 | 0.00 | 0.00 | 0.00 | 63 | 1014.2 |
| 20260508011004 | 71 | 247 | 3.0 | 9.0 | 0.00 | 0.00 | 0.00 | 61 | 1014.1 |
| 20260508010004 | 71 | 251 | 4.0 | 8.0 | 0.00 | 0.00 | 0.00 | 60 | 1014.2 |
| 20260508005004 | 71 | 240 | 4.0 | 11.0 | 0.00 | 0.00 | 0.00 | 61 | 1014.3 |
| 20260508004004 | 72 | 250 | 5.0 | 11.0 | 0.00 | 0.00 | 0.00 | 60 | 1014.2 |
| 20260508003025 | 72 | 241 | 5.0 | 11.0 | 0.00 | 0.00 | 0.00 | 60 | 1014.2 |
| 20260508002025 | 73 | 247 | 5.0 | 11.0 | 0.00 | 0.00 | 0.00 | 58 | 1014.3 |
| 20260508001004 | 73 | 244 | 5.0 | 12.0 | 0.00 | 0.00 | 0.00 | 58 | 1014.3 |
| 20260508000004 | 74 | 256 | 5.0 | 10.0 | 0.00 | 0.00 | 0.00 | 57 | 1014.3 |
| 20260507235004 | 74 | 245 | 5.0 | 11.0 | 0.00 | 0.00 | 0.00 | 57 | 1014.4 |
| 20260507234004 | 74 | 257 | 6.0 | 11.0 | 0.00 | 0.00 | 0.00 | 56 | 1014.4 |
| 20260507233004 | 75 | 248 | 5.0 | 13.0 | 0.00 | 0.00 | 0.00 | 56 | 1014.5 |
| 20260507232004 | 75 | 238 | 5.0 | 12.0 | 0.00 | 0.00 | 0.00 | 56 | 1014.4 |
| 20260507231004 | 75 | 235 | 5.0 | 11.0 | 0.00 | 0.00 | 0.00 | 55 | 1014.3 |
| 20260507230025 | 75 | 235 | 5.0 | 11.0 | 0.00 | 0.00 | 0.00 | 55 | 1014.5 |
| 20260507225004 | 75 | 238 | 5.0 | 14.0 | 0.00 | 0.00 | 0.00 | 55 | 1014.7 |
| 20260507224004 | 75 | 235 | 5.0 | 12.0 | 0.00 | 0.00 | 0.00 | 56 | 1014.7 |
| 20260507223005 | 75 | 248 | 5.0 | 11.0 | 0.00 | 0.00 | 0.00 | 56 | 1014.8 |
| 20260507222025 | 75 | 250 | 5.0 | 13.0 | 0.00 | 0.00 | 0.00 | 55 | 1014.8 |
| 20260507221004 | 74 | 245 | 6.0 | 12.0 | 0.00 | 0.00 | 0.00 | 57 | 1014.9 |
| 20260507220004 | 74 | 250 | 6.0 | 13.0 | 0.00 | 0.00 | 0.00 | 56 | 1015.1 |
| 20260507215004 | 74 | 240 | 6.0 | 13.0 | 0.00 | 0.00 | 0.00 | 57 | 1015.2 |
| 20260507214025 | 75 | 240 | 6.0 | 12.0 | 0.00 | 0.00 | 0.00 | 54 | 1015.3 |
| 20260507213004 | 75 | 244 | 6.0 | 13.0 | 0.00 | 0.00 | 0.00 | 55 | 1015.3 |
| 20260507212004 | 74 | 247 | 6.0 | 12.0 | 0.00 | 0.00 | 0.00 | 56 | 1015.4 |
| 20260507211004 | 74 | 255 | 8.0 | 17.0 | 0.00 | 0.00 | 0.00 | 58 | 1015.4 |
| 20260507210005 | 74 | 249 | 7.0 | 17.0 | 0.00 | 0.00 | 0.00 | 58 | 1015.7 |
| 20260507205004 | 74 | 243 | 7.0 | 14.0 | 0.00 | 0.00 | 0.00 | 57 | 1015.8 |
| 20260507204004 | 74 | 245 | 6.0 | 15.0 | 0.00 | 0.00 | 0.00 | 58 | 1015.9 |
| 20260507203004 | 74 | 244 | 6.0 | 12.0 | 0.00 | 0.00 | 0.00 | 58 | 1015.8 |
| 20260507202004 | 74 | 239 | 6.0 | 12.0 | 0.00 | 0.00 | 0.00 | 58 | 1016.0 |
| 20260507201004 | 74 | 248 | 6.0 | 14.0 | 0.00 | 0.00 | 0.00 | 59 | 1016.0 |
| 20260507200004 | 74 | 239 | 6.0 | 11.0 | 0.00 | 0.00 | 0.00 | 59 | 1016.1 |
| 20260507195004 | 74 | 243 | 6.0 | 12.0 | 0.00 | 0.00 | 0.00 | 58 | 1016.2 |
| 20260507194004 | 74 | 246 | 6.0 | 14.0 | 0.00 | 0.00 | 0.00 | 60 | 1016.2 |
| 20260507193004 | 74 | 251 | 5.0 | 14.0 | 0.00 | 0.00 | 0.00 | 60 | 1016.3 |
| 20260507192004 | 74 | 259 | 4.0 | 11.0 | 0.00 | 0.00 | 0.00 | 61 | 1016.3 |
| 20260507191004 | 74 | 255 | 5.0 | 10.0 | 0.00 | 0.00 | 0.00 | 62 | 1016.2 |
| 20260507190005 | 74 | 243 | 5.0 | 12.0 | 0.00 | 0.00 | 0.00 | 62 | 1016.3 |
| 20260507185004 | 74 | 259 | 4.0 | 12.0 | 0.00 | 0.00 | 0.00 | 61 | 1016.4 |
| 20260507184004 | 73 | 255 | 5.0 | 9.0 | 0.00 | 0.00 | 0.00 | 62 | 1016.5 |
| 20260507183004 | 73 | 250 | 5.0 | 11.0 | 0.00 | 0.00 | 0.00 | 62 | 1016.3 |
| 20260507182004 | 73 | 245 | 4.0 | 10.0 | 0.00 | 0.00 | 0.00 | 62 | 1016.3 |
| 20260507180025 | 74 | 257 | 3.0 | 9.0 | 0.00 | 0.00 | 0.00 | 60 | 1016.5 |
| 20260507175004 | 73 | 237 | 3.0 | 9.0 | 0.00 | 0.00 | 0.00 | 59 | 1016.4 |
| 20260507174004 | 73 | 268 | 3.0 | 9.0 | 0.00 | 0.00 | 0.00 | 59 | 1016.6 |
| 20260507173004 | 72 | 229 | 3.0 | 8.0 | 0.00 | 0.00 | 0.00 | 61 | 1016.5 |
| 20260507172004 | 72 | 261 | 3.0 | 8.0 | 0.00 | 0.00 | 0.00 | 62 | 1016.5 |
| 20260507171004 | 70 | 247 | 3.0 | 7.0 | 0.00 | 0.00 | 0.00 | 63 | 1016.5 |
| 20260507170004 | 71 | 243 | 3.0 | 6.0 | 0.00 | 0.00 | 0.00 | 63 | 1016.5 |
| 20260507165004 | 70 | 246 | 2.0 | 8.0 | 0.00 | 0.00 | 0.00 | 64 | 1016.5 |
| 20260507164004 | 70 | 263 | 3.0 | 6.0 | 0.00 | 0.00 | 0.00 | 65 | 1016.8 |
| 20260507163004 | 69 | 236 | 2.0 | 6.0 | 0.00 | 0.00 | 0.00 | 68 | 1016.9 |
| 20260507162004 | 68 | 253 | 3.0 | 7.0 | 0.00 | 0.00 | 0.00 | 69 | 1016.9 |
| 20260507161025 | 68 | 231 | 2.0 | 6.0 | 0.00 | 0.00 | 0.00 | 70 | 1016.8 |
| 20260507160004 | 67 | 198 | 2.0 | 6.0 | 0.00 | 0.00 | 0.00 | 70 | 1016.8 |
| 20260507155004 | 66 | 154 | 1.0 | 4.0 | 0.00 | 0.00 | 0.00 | 74 | 1016.8 |
| 20260507154004 | 64 | 153 | 1.0 | 3.0 | 0.00 | 0.00 | 0.00 | 79 | 1016.8 |
| 20260507153004 | 61 | 139 | 1.0 | 3.0 | 0.00 | 0.00 | 0.00 | 86 | 1016.9 |
| 20260507152004 | 58 | 134 | 1.0 | 4.0 | 0.00 | 0.00 | 0.00 | 89 | 1016.8 |
| 20260507151004 | 58 | 134 | 0.0 | 3.0 | 0.00 | 0.00 | 0.00 | 89 | 1017.0 |
| 20260507150004 | 57 | 134 | 1.0 | 2.0 | 0.00 | 0.00 | 0.00 | 89 | 1017.0 |
| 20260507145003 | 56 | 134 | 1.0 | 2.0 | 0.00 | 0.00 | 0.00 | 89 | 1017.1 |
| 20260507144004 | 55 | 134 | 1.0 | 3.0 | 0.00 | 0.00 | 0.00 | 88 | 1017.0 |
| 20260507143004 | 55 | 134 | 1.0 | 3.0 | 0.00 | 0.00 | 0.00 | 89 | 1016.9 |
| 20260507142025 | 54 | 134 | 2.0 | 3.0 | 0.00 | 0.00 | 0.00 | 89 | 1016.9 |
| 20260507141024 | 53 | 135 | 1.0 | 3.0 | 0.00 | 0.00 | 0.00 | 90 | 1016.8 |
| 20260507140004 | 52 | 135 | 2.0 | 3.0 | 0.00 | 0.00 | 0.00 | 90 | 1016.8 |
| 20260507135003 | 52 | 167 | 2.0 | 6.0 | 0.00 | 0.00 | 0.00 | 89 | 1016.7 |
| 20260507134003 | 51 | 183 | 1.0 | 5.0 | 0.00 | 0.00 | 0.00 | 89 | 1016.6 |
| 20260507133003 | 51 | 0 | 0.0 | 2.0 | 0.00 | 0.00 | 0.00 | 89 | 1016.5 |
| 20260507132004 | 51 | 0 | 0.0 | 0.0 | 0.00 | 0.00 | 0.00 | 88 | 1016.3 |
| 20260507130024 | 51 | 0 | 0.0 | 0.0 | 0.00 | 0.00 | 0.00 | 88 | 1016.3 |
| 20260507125004 | 51 | 0 | 0.0 | 0.0 | 0.00 | 0.00 | 0.00 | 88 | 1016.3 |
| 20260507124003 | 52 | 0 | 0.0 | 0.0 | 0.00 | 0.00 | 0.00 | 88 | 1016.2 |
| 20260507123003 | 52 | 0 | 0.0 | 0.0 | 0.00 | 0.00 | 0.00 | 88 | 1016.2 |
| 20260507122004 | 52 | 0 | 0.0 | 0.0 | 0.00 | 0.00 | 0.00 | 88 | 1016.2 |
| 20260507121024 | 52 | 0 | 0.0 | 0.0 | 0.00 | 0.00 | 0.00 | 88 | 1016.2 |
| 20260507120025 | 52 | 0 | 0.0 | 0.0 | 0.00 | 0.00 | 0.00 | 88 | 1016.3 |
| 20260507115003 | 52 | 0 | 0.0 | 0.0 | 0.00 | 0.00 | 0.00 | 88 | 1016.3 |
| 20260507114003 | 52 | 0 | 0.0 | 0.0 | 0.00 | 0.00 | 0.00 | 88 | 1016.3 |
| 20260507113004 | 52 | 0 | 0.0 | 0.0 | 0.00 | 0.00 | 0.00 | 88 | 1016.3 |
| 20260507112003 | 52 | 0 | 0.0 | 0.0 | 0.00 | 0.00 | 0.00 | 87 | 1016.4 |
| 20260507111004 | 52 | 0 | 0.0 | 0.0 | 0.00 | 0.00 | 0.00 | 87 | 1016.4 |
| 20260507110003 | 53 | 0 | 0.0 | 0.0 | 0.00 | 0.00 | 0.00 | 87 | 1016.5 |
| 20260507104004 | 53 | 0 | 0.0 | 0.0 | 0.00 | 0.00 | 0.00 | 87 | 1016.5 |
| 20260507103024 | 53 | 0 | 0.0 | 0.0 | 0.00 | 0.00 | 0.00 | 87 | 1016.6 |
| 20260507102003 | 53 | 0 | 0.0 | 0.0 | 0.00 | 0.00 | 0.00 | 86 | 1016.6 |
| 20260507101003 | 53 | 0 | 0.0 | 0.0 | 0.00 | 0.00 | 0.00 | 86 | 1016.7 |
| 20260507100004 | 53 | 0 | 0.0 | 0.0 | 0.00 | 0.00 | 0.00 | 86 | 1016.8 |
| 20260507095003 | 54 | 0 | 0.0 | 0.0 | 0.00 | 0.00 | 0.00 | 86 | 1016.9 |
| 20260507094003 | 54 | 0 | 0.0 | 0.0 | 0.00 | 0.00 | 0.00 | 86 | 1016.9 |
| 20260507093003 | 54 | 0 | 0.0 | 0.0 | 0.00 | 0.00 | 0.00 | 86 | 1017.0 |
| 20260507092003 | 54 | 0 | 0.0 | 0.0 | 0.00 | 0.00 | 0.00 | 86 | 1017.0 |
| 20260507091003 | 55 | 0 | 0.0 | 0.0 | 0.00 | 0.00 | 0.00 | 86 | 1017.1 |
| 20260507090004 | 55 | 0 | 0.0 | 0.0 | 0.00 | 0.00 | 0.00 | 87 | 1017.2 |
| 20260507085003 | 55 | 0 | 0.0 | 0.0 | 0.00 | 0.00 | 0.00 | 87 | 1017.3 |
| 20260507084003 | 55 | 0 | 0.0 | 0.0 | 0.00 | 0.00 | 0.00 | 87 | 1017.4 |
| 20260507083004 | 55 | 0 | 0.0 | 0.0 | 0.00 | 0.00 | 0.00 | 87 | 1017.4 |
| 20260507081004 | 55 | 0 | 0.0 | 0.0 | 0.00 | 0.00 | 0.00 | 87 | 1017.3 |
| 20260507080005 | 56 | 0 | 0.0 | 0.0 | 0.00 | 0.00 | 0.00 | 87 | 1017.4 |
| 20260507075004 | 56 | 0 | 0.0 | 0.0 | 0.00 | 0.00 | 0.00 | 86 | 1017.4 |
| 20260507074004 | 56 | 0 | 0.0 | 0.0 | 0.00 | 0.00 | 0.00 | 86 | 1017.4 |
| 20260507073004 | 56 | 0 | 1.0 | 0.0 | 0.00 | 0.00 | 0.00 | 86 | 1017.5 |
| 20260507072005 | 56 | 229 | 1.0 | 3.0 | 0.00 | 0.00 | 0.00 | 86 | 1017.5 |
| 20260507071005 | 57 | 0 | 0.0 | 3.0 | 0.00 | 0.00 | 0.00 | 86 | 1017.7 |
| 20260507070009 | 57 | 0 | 0.0 | 0.0 | 0.00 | 0.00 | 0.00 | 85 | 1017.6 |
| 20260507065004 | 57 | 0 | 0.0 | 0.0 | 0.00 | 0.00 | 0.00 | 85 | 1017.7 |
| 20260507064004 | 57 | 0 | 0.0 | 0.0 | 0.00 | 0.00 | 0.00 | 85 | 1017.7 |